Temperature
24 24 23 24 24 25 25 25 25 25 26 25 24 24 24 24 23 23 23 22 21 21 20 19 19 19 18 18 18 17 17 17 16 16 16 15 15 15 15 15 15 15 15 14
24 23 24 25 25 25 25 24 24 25 26 25 24 24 24 24 24 23 23 23 22 21 20 19 19 18 18 18 18 18 17 17 16 16 16 15 15 15 15 15 14 14 14 14
23 24 25 25 25 24 25 24 24 24 25 25 24 24 24 24 24 23 23 23 22 21 20 20 19 18 18 18 18 18 17 17 16 16 16 15 15 15 15 14 14 14 14 14
24 25 25 24 24 24 24 25 25 24 23 23 24 22 23 24 23 23 23 22 22 21 20 20 19 19 18 18 18 17 17 17 16 16 16 15 15 15 15 14 14 14 14 14
24 24 24 24 24 24 24 25 24 24 23 23 24 23 23 24 23 23 23 22 22 21 20 20 19 18 18 18 17 17 17 17 16 16 16 15 15 15 15 14 14 14 14 14
24 25 24 24 24 24 24 24 24 23 23 22 24 23 22 23 24 23 23 22 22 21 20 20 19 18 18 18 17 17 17 16 16 16 15 15 15 15 14 14 14 14 14 14
23 24 24 24 24 24 24 22 21 21 21 22 25 24 23 24 24 24 23 22 21 20 20 19 19 18 18 17 17 16 16 16 16 16 15 15 15 14 14 14 14 14 14 14
22 22 24 24 23 23 23 23 21 21 22 23 24 23 23 24 24 23 22 21 21 20 19 19 18 18 17 17 17 16 16 16 16 15 15 15 15 14 14 14 14 14 14 14
22 22 23 24 24 24 23 23 24 22 23 22 23 23 23 23 23 23 22 21 20 20 19 18 18 17 17 17 16 16 16 15 15 15 15 15 14 14 14 14 14 14 13 13
23 22 22 23 23 23 23 23 23 22 21 21 22 22 22 22 22 22 22 21 20 19 18 18 17 17 17 16 16 16 15 15 15 15 15 14 14 14 14 14 14 13 13 13
23 22 22 22 22 22 22 22 22 22 22 21 20 21 23 22 22 22 21 21 20 19 18 17 17 16 16 16 16 15 15 15 15 15 14 14 14 14 14 14 13 13 13 13
22 21 21 22 23 23 23 22 22 20 21 21 20 21 23 22 22 21 20 20 19 19 18 17 16 16 16 15 15 15 15 15 14 14 14 14 14 14 13 13 13 13 13 13
21 20 20 20 21 22 22 22 22 22 21 20 20 20 22 22 21 21 20 19 18 18 17 17 16 16 15 15 15 15 15 14 14 14 14 14 14 13 13 13 13 13 12 12
19 20 20 19 20 21 21 21 22 21 20 20 20 20 21 21 20 20 19 19 18 18 17 17 16 15 15 15 14 14 14 14 14 14 13 13 13 13 13 13 13 12 12 12
20 20 20 21 22 21 21 21 21 21 21 20 20 20 21 20 20 20 19 19 18 17 17 16 16 15 15 14 14 14 14 14 14 13 13 13 13 13 13 12 12 12 12 12
20 19 20 20 21 21 21 20 20 21 21 21 20 20 21 21 20 19 19 18 18 17 16 16 16 15 15 14 14 14 14 13 13 13 13 13 12 12 12 12 12 12 12 11
19 19 19 19 20 20 19 20 20 20 20 20 20 20 20 20 19 19 18 18 17 17 16 16 15 15 14 14 14 14 13 13 13 13 12 12 12 12 12 12 11 11 11 11
19 19 18 18 18 17 19 21 21 20 20 20 20 20 19 19 19 18 18 17 17 16 16 15 15 15 14 14 14 13 13 13 12 12 12 12 12 12 11 11 11 11 11 10
19 18 18 18 17 18 19 20 20 19 19 20 19 19 19 18 18 18 17 17 16 16 15 15 15 14 14 14 13 13 12 12 12 12 12 12 11 11 11 11 11 10 10 10
19 19 18 17 17 17 18 19 19 19 17 19 19 18 18 18 16 17 17 16 15 15 14 14 14 14 14 13 13 13 12 12 12 12 12 11 11 11 11 10 10 10 10 10
17 17 17 17 17 17 18 18 19 17 17 18 18 18 17 17 16 16 15 15 15 14 14 14 13 13 13 13 13 12 12 12 12 11 11 11 11 10 10 10 10 9 9 9
17 17 16 17 16 16 18 18 17 17 18 18 18 17 17 16 15 15 14 14 14 13 13 13 13 13 12 12 12 12 12 11 11 11 11 11 10 10 10 10 9 9 9 9
17 17 17 17 16 17 17 17 17 17 17 17 17 16 16 15 15 14 14 13 13 13 12 12 12 12 12 12 11 11 11 11 11 10 10 10 10 10 9 9 9 9 9 9
18 18 17 17 17 17 17 17 17 16 16 16 16 15 15 14 14 13 13 13 12 12 12 12 11 11 11 11 11 11 11 11 10 10 10 9 9 9 9 9 9 8 8 8
17 17 16 16 17 17 17 16 16 16 16 15 15 14 14 14 13 13 13 12 12 12 12 11 11 11 11 11 11 10 10 10 10 10 9 9 9 8 8 8 8 8 8 8
17 16 16 15 16 16 16 16 16 15 15 15 14 14 13 13 13 13 12 12 12 11 11 11 11 11 11 10 10 10 10 9 9 9 9 8 8 8 8 8 8 7 7 7
Wind_Speed
7 6 6 5 5 5 4 4 3 2 3 4 5 5 5 7 7 7 7 8 9 9 8 8 7 6 6 5 5 6 6 5 5 3 2 2 2 2 2 2 3 3 4 5
7 7 5 3 4 5 6 5 3 2 3 4 4 6 5 6 8 6 6 6 8 8 9 8 7 6 6 6 5 5 6 5 5 4 3 3 3 2 2 2 2 3 3 3
7 3 4 6 7 7 7 5 4 3 4 6 6 7 7 7 6 6 5 5 7 8 8 8 8 7 6 6 5 5 5 5 6 6 4 3 2 2 2 2 1 1 1 2
5 5 5 6 6 6 6 3 3 5 6 5 5 4 6 8 8 8 7 6 6 7 8 8 8 8 7 5 5 5 5 5 6 7 5 4 3 2 2 2 2 1 0 1
4 5 7 7 5 6 4 4 5 7 8 8 8 6 3 7 8 8 8 7 6 6 7 8 7 7 7 6 5 4 5 4 5 6 6 5 3 3 2 3 3 2 2 1
6 5 5 4 4 5 5 6 7 9 8 9 8 6 3 3 5 7 8 7 6 6 6 6 7 6 6 6 6 5 5 4 4 6 6 5 4 3 3 3 3 2 1 1
8 8 7 5 6 7 7 5 4 5 6 6 4 4 2 4 4 6 7 6 6 5 6 6 6 7 6 6 6 6 5 5 4 5 5 5 4 4 4 3 3 3 2 2
7 7 7 5 6 5 7 7 5 4 4 2 3 3 4 6 6 6 6 6 6 6 5 5 5 7 6 6 6 6 5 5 5 5 5 5 4 3 2 3 2 2 2 3
3 3 2 2 4 5 5 6 6 7 9 7 3 2 4 7 7 7 7 7 6 6 5 5 4 4 6 6 6 6 5 5 5 4 4 5 5 4 3 3 2 2 2 2
6 4 5 4 5 7 7 6 5 4 4 6 4 4 4 9 7 6 6 6 5 5 5 5 4 3 4 4 5 5 5 5 4 4 4 4 4 4 3 3 3 3 3 2
6 6 5 6 7 8 7 7 6 5 5 4 4 1 3 8 7 6 5 5 6 5 5 4 4 3 3 3 4 5 4 4 4 4 3 4 4 4 4 3 3 3 2 2
4 5 7 7 6 6 6 7 7 5 5 4 4 1 5 6 6 5 4 4 4 5 5 4 4 4 4 3 2 3 4 4 3 3 3 2 3 3 3 2 2 1 2 2
4 4 6 4 4 5 6 7 8 6 6 6 5 2 4 5 5 4 4 4 3 4 4 4 4 4 3 3 2 2 3 3 3 3 3 2 2 3 2 2 2 2 2 2
4 6 7 7 4 3 6 7 8 7 6 7 6 4 3 3 3 3 3 3 2 3 3 4 4 4 3 3 2 2 2 2 3 3 3 3 3 3 2 2 2 2 2 2
4 8 9 10 10 8 9 10 10 11 10 8 7 5 3 1 2 3 2 2 2 2 2 3 3 3 3 3 2 2 2 2 2 3 3 3 3 3 2 2 3 2 2 3
5 7 9 11 10 10 11 11 12 12 10 10 8 7 3 1 2 1 1 1 1 1 0 1 2 2 2 2 2 2 2 2 2 3 3 2 2 1 2 2 2 2 2 2
6 8 8 9 9 9 11 9 10 9 8 8 8 4 1 0 1 2 1 1 1 1 0 0 2 2 2 2 2 2 2 1 1 2 2 2 2 2 2 2 1 1 2 2
9 9 5 7 8 9 3 1 3 5 6 5 3 0 1 1 2 1 2 1 0 0 0 1 1 2 1 2 2 1 2 2 2 2 2 2 2 2 1 1 1 2 2 2
9 8 6 6 7 7 4 2 2 3 5 2 2 2 1 0 2 1 1 2 1 1 1 1 1 1 2 2 1 2 2 2 2 2 2 2 2 2 1 2 2 2 2 2
7 7 7 6 7 5 1 3 2 1 3 1 1 0 1 0 2 1 2 3 2 2 2 2 2 1 2 2 2 2 2 2 2 2 1 1 2 2 2 2 2 2 2 2
6 6 8 8 8 4 2 2 0 2 0 2 1 0 1 2 2 2 2 2 2 1 1 1 2 1 0 1 2 2 2 2 1 0 0 1 1 2 2 1 1 1 1 2
5 4 5 5 6 4 3 1 1 1 2 1 1 1 1 2 2 2 2 1 1 1 0 1 1 1 0 0 1 2 2 1 1 1 1 1 1 2 2 2 1 1 1 2
4 4 3 3 2 1 1 1 2 3 3 2 2 2 2 1 2 2 2 2 2 1 1 1 1 2 1 1 1 1 1 1 1 1 1 1 1 1 1 1 1 1 1 2
4 3 4 5 4 3 2 2 2 3 3 3 2 2 1 1 2 2 2 2 2 2 1 1 2 2 2 1 1 1 1 2 2 1 1 1 1 0 0 0 1 1 1 2
4 3 5 7 5 3 2 2 3 3 2 2 1 1 2 2 3 3 3 2 2 2 1 2 2 2 2 2 1 1 1 2 1 2 1 1 0 0 0 1 1 1 1 2
5 5 6 5 4 4 3 2 2 2 2 1 2 2 2 2 3 3 2 1 1 1 1 1 2 2 2 1 1 1 1 2 2 2 2 1 1 1 1 0 1 3 2 3
Wind_Direction
207 221 226 223 243 275 285 268 250 186 190 213 218 223 200 179 184 189 181 177 172 168 161 151 149 147 146 144 147 149 148 146 136 131 123 114 109 96 90 95 88 64 57 68
216 220 227 242 258 263 254 253 249 219 211 242 242 238 208 190 188 189 190 181 171 163 157 152 154 155 159 160 161 149 148 153 145 142 141 144 141 139 130 106 99 97 80 79
225 210 206 227 237 247 245 257 272 271 265 249 248 242 201 190 170 171 193 185 170 166 161 160 165 160 157 160 163 160 158 156 147 141 136 139 122 113 108 116 114 103 109 108
229 223 226 236 243 258 259 262 273 269 269 261 248 266 206 176 177 182 186 185 170 164 163 163 162 159 161 160 161 161 154 152 147 147 148 149 144 149 152 146 143 157 136 94
222 219 225 230 243 268 274 283 269 261 260 266 252 258 211 174 183 178 171 169 168 164 158 158 158 156 160 157 156 156 148 149 147 148 153 158 151 157 155 153 152 175 182 147
236 240 248 253 248 258 272 265 260 255 256 253 235 238 209 182 169 163 160 160 160 152 146 148 148 146 150 147 149 149 148 147 151 153 155 159 157 159 153 157 161 176 157 174
229 223 222 228 236 227 230 243 248 224 222 236 201 225 150 108 107 124 136 139 135 126 136 148 152 149 150 149 151 156 153 152 158 158 160 164 167 174 178 173 174 178 173 186
234 222 202 208 236 253 238 238 258 273 262 265 220 201 120 111 105 105 113 120 123 122 119 127 149 156 156 157 156 156 159 159 164 171 169 168 173 180 184 177 166 188 190 190
256 211 181 223 254 260 260 249 263 278 285 280 234 151 148 121 121 121 122 123 126 127 126 125 124 148 154 159 160 161 165 164 168 177 181 174 179 182 189 190 179 193 216 205
279 252 209 210 248 248 258 281 275 254 267 267 243 222 186 153 144 132 128 129 128 133 130 123 121 132 140 145 153 159 167 172 177 177 191 184 185 185 188 194 196 196 214 213
287 262 229 209 220 237 231 243 255 271 268 276 278 295 91 139 139 135 127 120 124 120 121 119 118 115 106 128 152 159 165 174 178 187 198 190 183 191 196 199 200 198 211 208
285 278 255 237 234 240 250 252 255 257 268 268 274 290 102 111 102 97 95 96 104 114 119 123 119 120 122 125 143 164 166 170 171 186 193 189 183 193 197 194 190 196 231 227
325 276 269 236 216 210 230 245 257 272 277 266 258 206 120 118 116 114 112 106 103 118 125 128 129 126 136 144 153 150 161 169 164 172 176 182 192 196 205 198 201 227 238 257
304 263 259 262 280 263 256 253 253 256 255 263 258 239 182 157 142 120 114 119 123 125 129 127 131 134 144 155 158 150 150 155 158 159 176 194 200 198 201 202 210 225 231 239
270 271 270 270 272 268 265 266 262 258 260 263 263 263 257 167 125 126 134 135 120 102 108 134 145 153 159 162 165 152 151 157 154 160 185 204 207 190 196 209 216 214 226 233
266 274 280 276 265 260 260 255 261 262 265 259 261 265 272 160 121 135 157 143 122 105 38 158 153 158 168 171 170 161 165 173 164 169 179 184 190 197 206 208 219 222 225 238
256 265 276 274 276 272 259 247 241 247 254 257 260 268 264 278 172 182 166 162 148 167 41 264 181 187 188 184 185 183 169 167 177 178 173 170 186 200 208 214 208 215 233 248
257 260 264 272 274 260 261 260 242 247 252 259 278 321 306 344 324 258 139 140 162 130 90 303 213 183 182 184 172 153 160 174 186 188 183 178 182 182 181 201 215 219 234 240
246 251 256 260 263 265 261 260 223 239 259 247 256 263 265 106 303 270 108 93 34 25 4 334 298 184 191 185 167 158 178 193 195 200 201 186 179 183 196 217 228 239 240 239
241 242 247 254 263 264 255 64 43 302 256 166 165 193 344 329 263 270 72 86 67 35 9 351 330 231 192 177 168 180 207 206 204 203 204 185 187 191 205 220 224 229 234 245
223 230 236 249 258 266 93 101 169 242 258 85 88 64 303 267 296 358 26 42 53 37 5 355 338 327 84 148 168 194 213 213 203 168 223 209 204 204 210 222 234 232 235 247
238 240 235 245 250 244 117 148 205 346 7 1 7 360 355 356 355 356 359 353 359 344 331 333 323 317 359 295 222 215 217 188 127 146 219 234 218 221 214 199 233 240 243 246
235 254 274 253 256 36 257 312 3 342 319 332 358 20 32 327 297 301 297 289 278 275 271 275 275 264 241 224 241 240 209 154 139 149 197 223 214 220 201 193 222 255 257 253
260 272 271 266 251 265 287 310 326 320 327 356 21 8 334 284 284 282 281 274 271 255 247 258 246 218 221 217 208 229 176 151 152 180 197 206 199 213 283 319 246 243 263 270
268 269 268 271 276 291 273 297 291 296 316 332 335 313 299 272 273 275 276 271 265 255 228 236 246 214 203 193 197 193 187 162 192 203 193 190 189 210 279 345 337 313 280 251
258 257 255 260 269 271 278 294 304 303 302 312 315 310 295 276 271 273 270 265 245 244 231 242 242 222 223 206 188 169 173 188 208 207 197 187 187 180 182 180 336 342 303 303
Height
1486 1488 1489 1487 1485 1485 1485 1487 1490 1489 1485 1488 1492 1493 1492 1493 1496 1498 1500 1503 1505 1508 1511 1513 1515 1517 1519 1521 1522 1523 1525 1526 1527 1528 1529 1529 1530 1531 1532 1532 1532 1533 1533 1534
1485 1487 1484 1482 1483 1484 1485 1489 1489 1487 1484 1487 1490 1490 1489 1490 1493 1495 1497 1500 1502 1505 1508 1511 1513 1515 1517 1519 1520 1522 1523 1525 1525 1526 1528 1529 1529 1530 1531 1531 1532 1532 1533 1533
1485 1483 1481 1482 1484 1486 1486 1489 1489 1490 1486 1484 1489 1492 1488 1488 1490 1493 1496 1498 1500 1503 1506 1508 1511 1513 1515 1517 1519 1520 1522 1523 1524 1525 1527 1528 1529 1530 1530 1531 1531 1532 1532 1533
1481 1480 1481 1483 1484 1485 1490 1484 1486 1489 1493 1494 1490 1502 1489 1485 1488 1490 1493 1496 1498 1501 1503 1506 1508 1510 1512 1514 1517 1519 1520 1522 1523 1524 1525 1526 1527 1528 1529 1530 1530 1531 1531 1532
1481 1480 1481 1484 1484 1484 1486 1483 1485 1487 1491 1494 1490 1497 1491 1482 1487 1488 1490 1493 1496 1499 1501 1504 1506 1508 1510 1512 1514 1517 1518 1520 1521 1522 1524 1525 1526 1527 1528 1529 1529 1530 1531 1531
1479 1479 1480 1481 1481 1482 1483 1485 1486 1487 1491 1502 1488 1494 1494 1484 1482 1484 1487 1491 1495 1497 1499 1502 1504 1507 1509 1510 1512 1514 1516 1518 1519 1520 1522 1523 1525 1526 1527 1527 1528 1529 1529 1530
1482 1479 1478 1480 1483 1483 1485 1493 1503 1504 1505 1497 1479 1486 1490 1479 1478 1481 1485 1490 1493 1496 1498 1501 1503 1504 1507 1509 1510 1512 1514 1516 1517 1519 1520 1522 1523 1524 1525 1526 1526 1527 1528 1528
1486 1486 1477 1478 1482 1485 1483 1488 1503 1509 1503 1492 1481 1486 1484 1477 1479 1482 1485 1489 1493 1495 1497 1499 1501 1503 1505 1507 1508 1510 1512 1514 1515 1517 1518 1520 1521 1522 1524 1524 1525 1526 1526 1527
1484 1486 1477 1478 1479 1481 1485 1485 1482 1492 1490 1495 1487 1484 1482 1478 1480 1483 1486 1490 1493 1495 1497 1499 1500 1502 1504 1505 1507 1508 1510 1512 1514 1515 1517 1518 1519 1520 1521 1522 1523 1524 1525 1525
1479 1486 1481 1480 1481 1481 1482 1483 1486 1493 1502 1504 1492 1488 1487 1483 1483 1484 1486 1489 1492 1495 1497 1498 1499 1501 1502 1504 1505 1507 1508 1510 1511 1513 1514 1516 1517 1518 1519 1520 1521 1522 1522 1523
1479 1485 1483 1481 1483 1484 1483 1485 1486 1489 1490 1501 1504 1496 1476 1478 1480 1484 1486 1489 1492 1494 1496 1498 1499 1500 1501 1503 1504 1505 1506 1508 1510 1511 1512 1513 1514 1515 1516 1518 1518 1519 1520 1521
1481 1483 1485 1480 1475 1476 1479 1481 1485 1496 1494 1490 1498 1496 1475 1477 1481 1484 1487 1490 1492 1493 1495 1497 1498 1499 1500 1501 1502 1503 1505 1506 1507 1508 1510 1511 1512 1513 1514 1515 1515 1516 1517 1518
1484 1487 1491 1489 1485 1479 1479 1479 1481 1484 1489 1492 1498 1497 1478 1479 1482 1485 1488 1490 1492 1493 1495 1496 1497 1498 1499 1500 1501 1502 1503 1504 1505 1506 1507 1508 1509 1510 1511 1512 1512 1513 1514 1515
1487 1486 1490 1494 1487 1482 1483 1481 1480 1484 1492 1491 1488 1487 1482 1481 1483 1485 1488 1490 1491 1493 1494 1495 1496 1497 1498 1499 1499 1500 1501 1502 1503 1504 1505 1505 1506 1507 1508 1509 1509 1510 1511 1512
1486 1486 1482 1479 1476 1477 1479 1481 1479 1481 1481 1485 1483 1483 1481 1481 1483 1485 1487 1489 1491 1492 1493 1493 1494 1495 1496 1497 1498 1499 1499 1500 1501 1501 1502 1503 1504 1504 1505 1506 1506 1507 1508 1508
1485 1485 1482 1480 1475 1475 1477 1477 1478 1477 1477 1478 1479 1480 1478 1480 1482 1485 1486 1488 1490 1491 1492 1492 1493 1494 1495 1495 1496 1497 1497 1498 1498 1499 1499 1500 1501 1502 1502 1503 1503 1504 1504 1505
1484 1485 1487 1485 1478 1477 1480 1473 1474 1475 1474 1475 1479 1478 1477 1479 1481 1484 1486 1487 1488 1490 1491 1491 1492 1492 1493 1494 1494 1495 1496 1496 1496 1497 1497 1497 1498 1499 1499 1500 1500 1500 1501 1501
1482 1483 1485 1486 1484 1491 1476 1467 1468 1471 1472 1472 1473 1475 1477 1480 1482 1483 1484 1486 1487 1488 1489 1489 1490 1490 1491 1492 1492 1493 1493 1494 1494 1494 1495 1495 1495 1496 1496 1496 1496 1497 1497 1498
1478 1481 1485 1485 1487 1481 1473 1468 1468 1472 1474 1472 1474 1476 1478 1480 1481 1482 1483 1484 1485 1486 1487 1487 1488 1488 1488 1489 1490 1490 1491 1491 1491 1492 1492 1492 1492 1492 1493 1493 1493 1494 1494 1494
1475 1477 1483 1484 1488 1486 1475 1469 1469 1473 1477 1473 1474 1476 1478 1479 1483 1482 1482 1483 1484 1484 1485 1485 1486 1486 1486 1486 1487 1488 1488 1488 1488 1489 1489 1489 1490 1490 1490 1490 1491 1491 1491 1491
1479 1479 1482 1483 1484 1478 1471 1471 1471 1482 1480 1474 1474 1476 1478 1479 1481 1482 1481 1482 1482 1482 1483 1483 1483 1483 1483 1484 1484 1485 1485 1485 1485 1486 1486 1487 1487 1487 1487 1487 1488 1488 1488 1488
1476 1478 1479 1480 1483 1481 1471 1471 1474 1475 1473 1473 1474 1476 1477 1479 1479 1480 1480 1480 1480 1480 1480 1480 1480 1480 1481 1481 1482 1482 1482 1483 1483 1483 1483 1483 1484 1484 1485 1485 1485 1485 1485 1485
1471 1473 1474 1475 1477 1471 1470 1471 1472 1472 1472 1473 1474 1475 1476 1477 1478 1478 1479 1478 1478 1478 1478 1478 1478 1478 1478 1479 1479 1479 1479 1480 1480 1480 1480 1481 1481 1481 1481 1482 1481 1482 1482 1482
1468 1468 1470 1471 1469 1469 1470 1470 1471 1472 1472 1472 1473 1474 1475 1476 1476 1476 1476 1476 1476 1475 1475 1475 1475 1475 1475 1475 1476 1476 1476 1477 1477 1477 1477 1478 1478 1478 1479 1479 1479 1479 1479 1478
1468 1468 1469 1469 1468 1468 1468 1469 1470 1470 1471 1471 1472 1473 1474 1474 1474 1474 1474 1473 1473 1472 1472 1472 1473 1472 1472 1473 1473 1474 1474 1474 1474 1474 1475 1475 1475 1475 1475 1476 1476 1476 1476 1476
1466 1467 1468 1468 1467 1467 1468 1468 1468 1468 1469 1470 1470 1471 1471 1472 1472 1471 1471 1471 1471 1470 1470 1470 1470 1470 1470 1470 1470 1471 1471 1471 1471 1471 1471 1472 1472 1472 1472 1472 1472 1472 1472 1472